This demonstration page uses our WeatherBlox Daily Observations layout. Learn more.

Left ArrowRight Arrow

39.29038, -76.61219

Hourly Observations for April 7, 2022

Temp ( °F °C ) Dew Point ( °F °C ) Humidity (%) Winds ( mph kmh ) Pressure ( in mb ) Visibility ( mi km ) Precip ( " mm )
12:37 am 00:37 Cloudy 54 12.2 49 9.4 83 83 E 13 20 29.83 1010 10 16 0.00 0.00
12:54 am 00:54 Cloudy 53 11.7 49 9.4 86 86 E 15 24 29.80 1009 10 16 0.00 0.00
1:47 am 01:47 Cloudy 53 11.7 49 9.4 86 86 ESE 12 19 29.81 1010 10 16 0.00 0.00
1:54 am 01:54 Cloudy 52 11.1 49 9.4 89 89 ESE 10 17 29.81 1010 10 16 0.00 0.00
2:54 am 02:54 Cloudy 50 10 48 8.9 93 93 E 14 22 29.78 1009 10 16 0.00 0.00
3:54 am 03:54 Cloudy 49 9.4 47 8.3 93 93 E 13 20 29.75 1008 10 16 0.00 0.00
4:21 am 04:21 Cloudy 49 9.4 47 8.3 93 93 ESE 12 19 29.75 1008 10 16 0.00 0.00
4:37 am 04:37 Cloudy with Mist and Fog 49 9.4 47 8.3 93 93 ESE 9 15 29.75 1008 2 2 0.00 0.00
4:54 am 04:54 Cloudy with Mist and Fog 48 8.9 47 8.3 96 96 E 9 15 29.74 1007 2 2 0.00 0.00
5:54 am 05:54 Cloudy with Drizzle 48 8.9 47 8.3 96 96 E 10 17 29.74 1007 2 2 0.00 0.00
6:54 am 06:54 Cloudy with Light Rain 48 8.9 47 8.3 96 96 E 14 22 29.72 1006 2 2 0.04 1.02
7:54 am 07:54 Cloudy with Light Rain 49 9.4 47 8.3 93 93 ENE 10 17 29.71 1006 2 2 0.15 3.81
8:08 am 08:08 Cloudy with Light Rain 49 9.4 47 8.3 93 93 NE 5 7 29.73 1007 2 3 0.02 0.51
8:24 am 08:24 Cloudy with Rain 49 9.4 47 8.3 93 93 E 10 17 29.72 1007 1 2 0.10 2.54
8:54 am 08:54 Cloudy with Light Rain 49 9.4 47 8.3 93 93 ENE 12 19 29.70 1006 2 2 0.23 5.84
9:54 am 09:54 Cloudy with Light Rain 50 10 49 9.4 96 96 ENE 9 15 29.68 1005 1 2 0.02 0.51
10:54 am 10:54 Cloudy with Light Rain 51 10.6 50 10 96 96 ENE 8 13 29.66 1004 1 2 0.05 1.27
10:57 am 10:57 Cloudy with Drizzle 51 10.6 50 10 96 96 ENE 8 13 29.66 1004 1 1 0.00 0.00
11:54 am 11:54 Cloudy with Drizzle 52 11.1 50 10 93 93 ENE 7 11 29.61 1003 1 1 0.01 0.25
12:39 pm 12:39 Cloudy with Drizzle 52 11.1 51 10.6 97 97 ENE 8 13 29.60 1002 1 1 0.01 0.25
12:54 pm 12:54 Cloudy with Drizzle 52 11.1 51 10.6 97 97 NNE 6 9 29.60 1002 1 1 0.01 0.25
1:54 pm 13:54 Cloudy with Drizzle 53 11.7 51 10.6 93 93 NW 6 9 29.59 1002 1 1 0.01 0.25
2:35 pm 14:35 Cloudy with Drizzle 53 11.7 51 10.6 93 93 N 6 9 29.58 1002 1 1 0.02 0.51
2:54 pm 14:54 Cloudy with Drizzle 53 11.7 51 10.6 93 93 NNW 7 11 29.58 1002 1 1 0.02 0.51
3:45 pm 15:45 Cloudy with Light Rain 53 11.7 51 10.6 93 93 NNW 5 7 29.56 1001 3 5 0.01 0.25
3:54 pm 15:54 Cloudy with Light Rain 53 11.7 51 10.6 93 93 NNW 5 7 29.56 1001 3 5 0.01 0.25
4:49 pm 16:49 Cloudy with Light Rain 54 12 50 10 88 88 WNW 9 15 29.57 1001 6 10 0.02 0.51
4:54 pm 16:54 Cloudy with Light Rain 53 11.7 50 10 89 89 WNW 9 15 29.57 1001 6 10 0.02 0.51
5:36 pm 17:36 Cloudy with Light Rain 53 11.7 50 10 89 89 NW 12 19 29.55 1001 5 8 0.00 0.00
5:54 pm 17:54 Cloudy with Light Rain 52 11.1 49 9.4 89 89 WNW 10 17 29.57 1001 4 6 0.01 0.25
6:32 pm 18:32 Cloudy 51 10.6 48 8.9 89 89 NW 8 13 29.57 1001 7 11 0.02 0.51
6:43 pm 18:43 Cloudy with Rain 51 10.6 48 8.9 89 89 WNW 13 20 29.58 1002 2 3 0.03 0.76
6:54 pm 18:54 Cloudy with Light Rain 51 10.6 48 8.9 89 89 NW 10 17 29.57 1001 3 4 0.07 1.78
6:55 pm 18:55 Cloudy with Light Rain 51 10.6 48 8.9 89 89 NW 13 20 29.57 1001 5 8 0.00 0.00
7:54 pm 19:54 Cloudy 51 10.6 48 8.9 89 89 NW 3 6 29.59 1002 7 11 0.13 3.30
8:54 pm 20:54 Cloudy 51 10.6 47 8.3 86 86 NNW 5 7 29.58 1002 10 16 0.00 0.00
9:54 pm 21:54 Mostly Cloudy 50 10 46 7.8 86 86 WNW 7 11 29.60 1003 10 16 0.00 0.00
10:54 pm 22:54 Partly Cloudy 48 8.9 45 7.2 89 89 W 6 9 29.62 1003 10 16 0.00 0.00
11:54 pm 23:54 Mostly Clear 46 7.8 44 6.7 93 93 W 5 7 29.63 1003 10 16 0.00 0.00

Powered by AerisWeather